Location: Ocean City
(38.3360°N, 75.0850°W)
Time: 10:21:12
(UTC-05:00)

Courier 1B - All Passes

Search period start: 15 November 2019 00:00
Search period end: 25 November 2019 00:00
Orbit: 963 x 1209 km, 28.3° (Epoch: 14 November)

Date Brightness Start Highest point End Pass type
(mag) Time Alt. Az. Time Alt. Az. Time Alt. Az.
15 Nov - 06:21:54 10° SSW 06:26:19 19° SSE 06:30:39 10° ESE daylight
15 Nov - 08:13:51 10° SW 08:19:32 32° S 08:25:09 10° ESE daylight
15 Nov - 10:07:14 10° WSW 10:12:53 32° S 10:18:35 10° SE daylight
15 Nov - 12:01:34 10° WSW 12:06:07 20° SSW 12:10:45 10° SSE daylight
16 Nov - 05:29:09 10° S 05:32:47 15° SSE 05:36:21 10° ESE visible
16 Nov - 07:20:24 10° SW 07:25:58 29° S 07:31:27 10° ESE daylight
16 Nov - 09:13:33 10° WSW 09:19:19 34° S 09:25:03 10° ESE daylight
16 Nov - 11:07:36 10° WSW 11:12:35 24° SSW 11:17:38 10° SE daylight
17 Nov - 04:37:03 10° S 04:39:15 12° SSE 04:41:25 10° SE visible
17 Nov - 06:27:00 10° SW 06:32:25 26° SSE 06:37:41 10° ESE daylight
17 Nov - 08:19:54 10° WSW 08:25:45 34° S 08:31:29 10° ESE daylight
17 Nov - 10:13:43 10° WSW 10:19:03 27° SSW 10:24:24 10° SE daylight
17 Nov - 12:09:28 10° SW 12:12:10 13° SSW 12:14:51 10° S daylight
18 Nov - 05:33:42 10° SSW 05:38:51 23° SSE 05:43:49 10° ESE visible
18 Nov - 07:26:16 10° WSW 07:32:10 34° S 07:37:55 10° ESE daylight
18 Nov - 09:19:55 10° WSW 09:25:30 30° S 09:31:03 10° SE daylight
18 Nov - 11:14:49 10° WSW 11:18:40 16° SSW 11:22:32 10° SSE daylight
19 Nov - 04:40:35 10° SSW 04:45:17 19° SSE 04:49:49 10° ESE visible
19 Nov - 06:32:39 10° SW 06:38:35 32° S 06:44:17 10° ESE daylight
19 Nov - 08:26:08 10° WSW 08:31:57 33° S 08:37:39 10° SE daylight
19 Nov - 10:20:35 10° WSW 10:25:10 20° SSW 10:29:45 10° SSE daylight
20 Nov - 03:47:44 10° S 03:51:42 16° SSE 03:55:32 10° ESE visible
20 Nov - 05:39:05 10° SW 05:44:58 30° SSE 05:50:37 10° ESE visible
20 Nov - 07:32:22 10° WSW 07:38:23 35° S 07:44:11 10° ESE daylight
20 Nov - 09:26:31 10° WSW 09:31:39 24° SSW 09:36:42 10° SE daylight
21 Nov - 02:55:30 10° S 02:58:06 12° SSE 03:00:39 10° SE visible
21 Nov - 04:45:35 10° SW 04:51:22 27° SSE 04:56:53 10° ESE visible
21 Nov - 06:38:37 10° WSW 06:44:47 35° S 06:50:40 10° ESE daylight
21 Nov - 08:32:34 10° WSW 08:38:07 28° SSW 08:43:31 10° SE daylight
21 Nov - 10:28:17 10° SW 10:31:11 13° SSW 10:34:05 10° S daylight
22 Nov - 03:52:14 10° SSW 03:57:44 23° SSE 04:03:00 10° ESE visible
22 Nov - 05:44:52 10° WSW 05:51:09 35° S 05:57:07 10° ESE visible
22 Nov - 07:38:40 10° WSW 07:44:34 32° S 07:50:14 10° SE daylight
22 Nov - 09:33:37 10° WSW 09:37:43 17° SSW 09:41:45 10° SSE daylight
23 Nov - 02:59:02 10° SSW 03:04:05 20° SSE 03:08:58 10° ESE visible
23 Nov - 04:51:10 10° SW 04:57:30 33° S 05:03:30 10° ESE visible
23 Nov - 06:44:47 10° WSW 06:50:58 35° S 06:56:51 10° ESE daylight
23 Nov - 08:39:18 10° WSW 08:44:12 22° SSW 08:48:59 10° SSE daylight
24 Nov - 02:06:11 10° S 02:10:27 16° SSE 02:14:37 10° ESE visible
24 Nov - 03:57:32 10° SW 04:03:49 31° SSE 04:09:48 10° ESE visible
24 Nov - 05:50:55 10° WSW 05:57:19 36° S 06:03:24 10° ESE visible
24 Nov - 07:45:10 10° WSW 07:50:41 26° SSW 07:55:59 10° SE daylight
24 Nov - 09:42:36 10° SW 09:43:41 10° SSW 09:44:47 10° SSW daylight
